Regional Weather Roundup
Issued by NWS

Home | Current Version | Previous Version | Text Only | Print | Product List | Glossary Off
Versions: 1 2 3 4 5 6 7 8 9 10 11 12 13 14 15 16 17 18 19 20 21 22 23 24 25 26 27 28 29 30 31 32 33 34 35 36 37 38 39 40 41 42 43 44 45 46 47 48 49 50

000
ASUS43 KLOT 281100
RWRIL

ILLINOIS REGIONAL WEATHER ROUNDUP
NATIONAL WEATHER SERVICE CHICAGO/ROMEOVILLE IL
500 AM CST FRI NOV 28 2014

NOTE: "FAIR" INDICATES FEW OR NO CLOUDS BELOW 12,000 FEET WITH NO
SIGNIFICANT WEATHER AND/OR OBSTRUCTIONS TO VISIBILITY.

* THESE STATIONS ARE NOT UNDER NWS QUALITY CONTROL. THEY ALSO MAY NOT
  REPORT WEATHER SUCH AS PRECIPITATION OR FOG.

ILZ001-002-007-009-015-016-024-281200-
NORTHWEST ILLINOIS

CITY           SKY/WX    TMP DP  RH WIND       PRES   REMARKS
MOLINE         CLOUDY    18   9  68 SE8       30.26F WCI   8
STERLING*      CLOUDY    16  10  79 SE8       30.26F WCI   5
$$

ILZ003-004-008-010-011-017-018-281200-
NORTH CENTRAL ILLINOIS

CITY           SKY/WX    TMP DP  RH WIND       PRES   REMARKS
ROCKFORD       FLURRIES  17   8  67 S8        30.30F WCI   7
$$

ILZ005-006-012>014-019>023-281200-
NORTHEAST ILLINOIS

CITY           SKY/WX    TMP DP  RH WIND       PRES   REMARKS
CHICAGO-OHARE  FLURRIES  19  12  74 S5        30.32F WCI  12
CHICAGO-MIDWAY FLURRIES  22  13  68 S5        30.33F WCI  16
AURORA         CLOUDY    18   9  68 SE5       30.32F WCI  11
WAUKEGAN       CLOUDY    17  10  74 SE3       30.31F
DUPAGE AIRPORT CLOUDY    18  13  80 SE5       30.31F WCI  11
WHEELING       CLOUDY    20  12  71 S7        30.34F WCI  11
NORTHERLY ISL    N/A     21  11  65 S5          N/A  WCI  15
$$

LMZ740>746-281200-
SOUTHERN LAKE MICHIGAN

STATION/POSITION SKY/WX   TEMP    WIND        PRES    VSBY  WAVE
                          AIR SEA DIR/SP/G                  HT/PER
                          (F)     (DEG/KT/KT) (MB)    (MI)  (FT/S)
SOUTHERN BUOY              24 42  260/ 12/ 16 1028.9R         2/ 6
WAUKEGAN HARBOR            19     210/  6/  7   N/A
HARRISON CRIB              21     190/ 10/ 12   N/A
BURNHAM HARBOR             21     170/  4/  8   N/A
CALUMET HARBOR             21     190/  4/  5 1026.2F
MICHIGAN CITY              21     190/ 11/ 12   N/A
$$

ILZ025>027-034>036-040-047-049-050-058-095>099-281200-
WEST-CENTRAL ILLINOIS

CITY           SKY/WX    TMP DP  RH WIND       PRES   REMARKS
QUINCY         PTCLDY    21  16  81 SE13      30.22F WCI   9
$$

ILZ028>032-037-038-041>044-048-051>054-059>061-281200-
CENTRAL ILLINOIS

CITY           SKY/WX    TMP DP  RH WIND       PRES   REMARKS
DECATUR        PTCLDY    19   9  65 S7        30.35F WCI  10
PEORIA         CLOUDY    20  11  68 SE9       30.31F WCI   9
SPRINGFIELD    MOCLDY    17  10  74 SE8       30.32F WCI   7
TAYLORVILLE    NOT AVBL
$$

ILZ033-039-045-046-055>057-062-063-281200-
EAST-CENTRAL ILLINOIS

CITY           SKY/WX    TMP DP  RH WIND       PRES   REMARKS
CHAMPAIGN      CLOUDY    19  14  81 S9        30.36S WCI   8
MATTOON        MOCLDY    20  10  65 S6        30.36F WCI  12
$$

ILZ079-100>102-281200-
SOUTHWEST ILLINOIS

CITY           SKY/WX    TMP DP  RH WIND       PRES   REMARKS
BELLEVILLE     PTCLDY    23  22  95 SE6       30.34F WCI  16
CAHOKIA*       CLEAR     25  21  85 SE6       30.33F WCI  18
$$

ILZ064>066-069>071-074>076-080>082-084>086-088>090-092>094-281200-
SOUTH-CENTRAL ILLINOIS

CITY           SKY/WX    TMP DP  RH WIND       PRES   REMARKS
CARBONDALE     CLEAR     24  21  88 SE5       30.39F WCI  18
MT. VERNON     MOCLDY    25  18  74 CALM      30.39F
$$

ILZ067-068-072-073-078-083-087-091-281200-
SOUTHEAST ILLINOIS

CITY           SKY/WX    TMP DP  RH WIND       PRES   REMARKS
LAWRENCEVILLE  CLOUDY    23  20  88 SE3       30.41F
CARMI*         CLOUDY    27  27 100 W3        30.41F
$$

ABBREVIATIONS USED IN REMARKS
   TC - TEMPERATURE IN CELSIUS
  WCI - WIND CHILL INDEX
   HX - HEAT INDEX
  VSB - VISIBILITY
$$




USA.gov is the U.S. government's official web portal to all federal, state and local government web resources and services.